Home   Weather   Kolding   Past weeks

Flag for Denmark Past Weather in Kolding, Denmark — Yesterday and Last 2 Weeks

46 °F


Feels Like: 41 °F
Forecast: 42 / 49 °F
Wind: 10 mph from Northeast

Location: Vamdrup

Current Time: Oct 22, 2016 at 7:20:22 AM

Latest Report: Oct 22, 2016 at 6:50 AM

Visibility: N/A

Pressure: 30.01 "Hg

Humidity: 87%

Dew Point: 43 °F

Location of KoldingLocation

Past Weather in Kolding — Graph


Kolding Temperature Yesterday

Maximum temperature yesterday: 48 °F (at 5:20 AM)
Minimum temperature yesterday: 45 °F (at 12:50 AM)
Average temperature yesterday: 46 °F

High & Low Weather Summary for the Past Weeks

High57 °F (Oct 18, 1:50 PM)100% (Oct 7, 11:50 PM)30.36 "Hg (Oct 7, 11:50 PM)
Low37 °F (Oct 7, 11:50 PM)62% (Oct 14, 1:20 PM)29.89 "Hg (Oct 15, 8:20 AM)
Average48 °F89%30.16 "Hg
* Reported Oct 7 6:20 AM — Oct 22 6:20 AM, Kolding, Weather by CustomWeather, © 2016

Note: Actual official high and low records may vary slightly from our data, if they occured in-between our weather recording intervals... More about our weather records


Kolding Weather History for the Previous 24 Hours

Scroll right to see more
Time TempWeatherWind HumidityBarometerVisibility
6:20 AM
Sat, Oct 22
46 °FCool.12 mph93%30.01 "HgN/A
5:50 AM46 °FCool.8 mph93%30.01 "HgN/A
5:20 AM46 °FCool.10 mph93%30.01 "HgN/A
4:50 AM46 °FCool.8 mph93%30.01 "HgN/A
4:20 AM46 °FCool.13 mph93%30.01 "HgN/A
3:50 AM46 °FCool.12 mph93%30.01 "HgN/A
3:20 AM48 °FCool.10 mph87%30.01 "HgN/A
2:20 AM48 °FCool.12 mph87%30.01 "HgN/A
1:50 AM46 °FCool.10 mph93%30.01 "HgN/A
1:20 AM48 °FCool.10 mph87%30.01 "HgN/A
12:50 AM46 °FCool.10 mph93%30.01 "HgN/A
12:20 AM46 °FCool.9 mph93%30.01 "HgN/A
11:50 PM
Fri, Oct 21
46 °FCool.9 mph93%30.01 "HgN/A
11:20 PM46 °FCool.7 mph93%30.01 "HgN/A
10:50 PM46 °FCool.8 mph93%30.01 "HgN/A
10:20 PM46 °FCool.8 mph93%30.01 "HgN/A
9:50 PM46 °FCool.9 mph93%30.01 "HgN/A
9:20 PM46 °FCool.9 mph93%30.01 "HgN/A
8:50 PM46 °FCool.10 mph93%30.01 "HgN/A
8:20 PM46 °FCool.10 mph100%30.01 "HgN/A
7:50 PM46 °FCool.10 mph100%30.01 "HgN/A
7:20 PM46 °FCool.13 mph93%30.01 "HgN/A
6:50 PM46 °FCool.12 mph93%30.01 "HgN/A
6:20 PM46 °FCool.12 mph93%29.98 "HgN/A
4:50 PM46 °FLight rain. Partly sunny.15 mph93%29.98 "HgN/A
2:50 PM48 °FLight rain. Partly sunny.15 mph87%29.98 "HgN/A
1:50 PM48 °FLight rain. Partly sunny.17 mph87%29.98 "HgN/A
12:50 PM48 °FLight rain. Partly sunny.14 mph87%29.98 "HgN/A
12:20 PM48 °FPartly sunny.15 mph94%29.98 "HgN/A
10:50 AM48 °FLight rain. Partly sunny.13 mph87%29.98 "Hg4 mi
9:50 AM46 °FLight rain. Low clouds.12 mph93%29.98 "Hg4 mi
8:50 AM46 °FLight rain. Low clouds.12 mph93%29.98 "Hg4 mi
8:20 AM46 °FLight rain. Overcast.12 mph93%29.98 "Hg3 mi
7:50 AM46 °FLight rain. Overcast.12 mph93%29.98 "Hg4 mi
7:20 AM46 °FCool.10 mph100%29.98 "HgN/A
Weather by CustomWeather, © 2016

See weather overviewHow to use our weather pages